AC2JK-WX Weather Reports


Display with metric or nautical units.
time (UTC)temp
F
wind
direction
speed
MPH
gust
MPH
rain 1hr
in
rain 24hr
in
rain mn
in
humidity
%
barometer
mb
20260505213709 52 245 4.0 7.0 0.11 0.00 0.15 93 1009.0
20260505213209 52 245 0.0 3.0 0.10 0.00 0.15 94 1009.0
20260505212710 52 245 1.0 2.0 0.09 0.00 0.13 94 1009.0
20260505212209 52 245 2.0 2.0 0.08 0.00 0.13 94 1008.0
20260505211709 53 245 5.0 6.0 0.06 0.00 0.10 94 1009.0
20260505211212 53 245 3.0 3.0 0.05 0.00 0.09 93 1008.0
20260505210711 52 245 2.0 4.0 0.03 0.00 0.08 93 1008.0
20260505210210 53 245 2.0 4.0 0.03 0.00 0.07 92 1008.0
20260505205709 53 245 4.0 6.0 0.02 0.00 0.06 92 1008.0
20260505205209 53 245 3.0 3.0 0.01 0.00 0.05 91 1008.0
20260505204709 53 245 2.0 6.0 0.01 0.00 0.05 89 1008.0
20260505204210 54 245 4.0 5.0 0.00 0.00 0.04 88 1008.0
20260505203709 54 245 1.0 6.0 0.00 0.00 0.04 86 1008.0
20260505203210 55 245 3.0 3.0 0.00 0.00 0.04 85 1007.0
20260505202709 55 245 2.0 2.0 0.00 0.00 0.04 84 1007.0
20260505202210 55 245 3.0 3.0 0.00 0.00 0.04 84 1007.0
20260505201709 55 245 2.0 6.0 0.00 0.00 0.04 84 1007.0
20260505201210 55 245 5.0 5.0 0.00 0.00 0.04 85 1007.0
20260505200710 54 245 2.0 4.0 0.00 0.00 0.04 85 1007.0
20260505200210 54 245 3.0 6.0 0.00 0.00 0.04 85 1007.0
20260505195709 54 245 7.0 7.0 0.00 0.00 0.04 85 1007.0
20260505195211 54 245 8.0 8.0 0.00 0.00 0.04 83 1007.0
20260505194710 55 245 4.0 9.0 0.00 0.00 0.04 81 1007.0
20260505194209 57 245 4.0 6.0 0.00 0.00 0.04 77 1007.0
20260505193710 57 245 5.0 8.0 0.00 0.00 0.04 76 1007.0
20260505193211 58 245 8.0 8.0 0.00 0.00 0.04 75 1006.0
20260505192711 59 245 9.0 9.0 0.00 0.00 0.04 73 1006.0
20260505192210 61 245 3.0 6.0 0.00 0.00 0.04 70 1006.0
20260505191710 64 245 6.0 8.0 0.00 0.00 0.04 65 1006.0
20260505191210 66 245 6.0 7.0 0.00 0.00 0.04 64 1006.0
20260505190710 66 245 4.0 9.0 0.00 0.00 0.04 64 1006.0
20260505190209 66 245 6.0 10.0 0.00 0.00 0.04 62 1006.0
20260505185709 67 245 7.0 13.0 0.00 0.00 0.04 61 1006.0
20260505185215 67 245 13.0 13.0 0.00 0.00 0.04 60 1006.0
20260505184709 68 245 4.0 5.0 0.00 0.00 0.04 60 1006.0
20260505184210 67 245 6.0 7.0 0.00 0.00 0.04 60 1006.0
20260505183709 68 245 7.0 8.0 0.00 0.00 0.04 59 1006.0
20260505183210 68 245 5.0 6.0 0.00 0.00 0.04 59 1006.0
20260505182709 68 245 5.0 13.0 0.00 0.00 0.04 59 1006.0
20260505182218 68 245 6.0 10.0 0.00 0.00 0.04 59 1006.0
20260505181710 67 245 5.0 8.0 0.00 0.00 0.04 61 1006.0
20260505181212 67 245 8.0 9.0 0.00 0.00 0.04 60 1006.0
20260505180711 67 245 6.0 13.0 0.00 0.00 0.04 61 1006.0
20260505180209 66 245 10.0 15.0 0.00 0.00 0.04 62 1006.0
20260505175709 66 245 10.0 12.0 0.00 0.00 0.04 63 1006.0
20260505175211 65 245 9.0 14.0 0.00 0.00 0.04 64 1006.0
20260505174709 66 245 11.0 11.0 0.00 0.00 0.04 63 1006.0
20260505174211 66 245 8.0 11.0 0.00 0.00 0.04 63 1006.0
20260505173709 66 245 6.0 17.0 0.00 0.00 0.04 63 1006.0
20260505173209 66 245 8.0 16.0 0.00 0.00 0.04 63 1006.0
20260505172709 66 245 9.0 13.0 0.00 0.00 0.04 63 1006.0
20260505172212 66 245 7.0 10.0 0.00 0.00 0.04 63 1006.0
20260505171709 65 245 7.0 11.0 0.00 0.00 0.04 65 1006.0
20260505171210 65 245 8.0 10.0 0.00 0.00 0.04 65 1006.0
20260505170712 66 245 6.0 7.0 0.00 0.00 0.04 65 1006.0
20260505170210 65 245 11.0 11.0 0.00 0.00 0.04 64 1006.0
20260505165710 66 245 6.0 10.0 0.00 0.00 0.04 62 1006.0
20260505165210 67 245 6.0 12.0 0.00 0.00 0.04 61 1006.0
20260505164710 67 245 6.0 11.0 0.00 0.00 0.04 61 1005.0
20260505164210 66 245 5.0 14.0 0.00 0.00 0.04 63 1005.0
20260505163710 67 245 6.0 16.0 0.00 0.00 0.04 61 1005.0
20260505163210 67 245 6.0 11.0 0.00 0.00 0.04 61 1005.0
20260505162710 67 245 9.0 9.0 0.00 0.00 0.04 61 1005.0
20260505162210 66 245 4.0 11.0 0.00 0.00 0.04 63 1005.0
20260505161711 65 245 6.0 11.0 0.00 0.00 0.04 64 1005.0
20260505161210 65 245 8.0 10.0 0.00 0.00 0.04 63 1005.0
20260505160709 64 245 5.0 17.0 0.00 0.00 0.04 66 1005.0
20260505160209 63 245 3.0 3.0 0.00 0.00 0.04 66 1005.0
20260505153210 64 245 5.0 9.0 0.00 0.00 0.04 62 1005.0
20260505152710 65 245 7.0 7.0 0.00 0.00 0.04 62 1005.0
20260505152210 65 245 7.0 7.0 0.00 0.00 0.04 61 1005.0
20260505151709 65 245 8.0 10.0 0.00 0.00 0.04 61 1004.0
20260505151211 66 245 7.0 12.0 0.00 0.00 0.04 61 1004.0
20260505150709 66 245 7.0 7.0 0.00 0.00 0.04 63 1004.0
20260505150210 65 245 11.0 11.0 0.00 0.00 0.04 64 1004.0
20260505140211 64 245 6.0 6.0 0.00 0.00 0.04 65 1004.0
20260505130209 61 245 4.0 7.0 0.00 0.00 0.04 70 1004.0
20260505124709 63 245 4.0 4.0 0.00 0.00 0.04 65 1003.0
20260505124210 63 245 5.0 6.0 0.00 0.00 0.04 65 1003.0
20260505123710 64 245 1.0 6.0 0.00 0.00 0.04 65 1003.0
20260505123209 64 245 5.0 11.0 0.00 0.00 0.04 65 1003.0
20260505122710 64 245 7.0 7.0 0.00 0.00 0.04 65 1003.0
20260505122212 64 245 6.0 8.0 0.01 0.00 0.04 65 1003.0
20260505121231 63 245 3.0 8.0 0.01 0.00 0.04 66 1003.0
20260505120710 63 245 7.0 7.0 0.01 0.00 0.04 66 1003.0
20260505120211 63 245 6.0 11.0 0.01 0.00 0.04 66 1003.0
20260505115709 63 245 5.0 9.0 0.01 0.00 0.04 67 1003.0
20260505115209 63 245 4.0 10.0 0.01 0.00 0.04 67 1002.0
20260505114711 63 245 8.0 8.0 0.01 0.00 0.04 67 1002.0
20260505114212 63 245 8.0 11.0 0.01 0.00 0.04 66 1002.0
20260505113709 63 245 4.0 10.0 0.01 0.00 0.04 66 1002.0
20260505113211 63 245 9.0 9.0 0.01 0.00 0.04 66 1002.0
20260505112712 63 245 6.0 7.0 0.00 0.00 0.04 67 1002.0
20260505112209 63 245 6.0 10.0 0.00 0.00 0.03 67 1002.0
20260505111709 63 245 4.0 10.0 0.00 0.00 0.03 66 1002.0
20260505111210 63 245 4.0 9.0 0.00 0.00 0.03 67 1002.0
20260505110709 63 245 4.0 7.0 0.00 0.00 0.03 67 1002.0
20260505110210 63 245 9.0 11.0 0.00 0.00 0.03 68 1002.0
20260505102209 62 245 4.0 5.0 0.00 0.00 0.03 70 1001.0
20260505101709 63 245 5.0 7.0 0.00 0.00 0.03 70 1001.0
20260505101210 63 245 2.0 6.0 0.00 0.00 0.03 70 1001.0
20260505100709 63 245 6.0 6.0 0.00 0.00 0.03 70 1001.0
20260505095859 63 245 4.0 9.0 0.00 0.00 0.03 70 1001.0
20260505095210 63 245 4.0 8.0 0.00 0.00 0.03 70 1001.0
20260505094709 63 245 2.0 7.0 0.00 0.00 0.03 70 1001.0
20260505094209 63 245 5.0 7.0 0.00 0.00 0.03 71 1001.0
20260505093709 63 245 4.0 4.0 0.00 0.00 0.03 71 1001.0
20260505093211 63 245 4.0 4.0 0.00 0.00 0.03 71 1001.0
20260505092711 63 245 4.0 5.0 0.00 0.00 0.03 72 1001.0
20260505092210 62 245 3.0 5.0 0.00 0.00 0.03 73 1001.0
20260505091714 62 245 6.0 7.0 0.00 0.00 0.03 75 1001.0
20260505091210 61 245 3.0 10.0 0.00 0.00 0.03 76 1001.0
20260505090709 60 245 2.0 6.0 0.00 0.00 0.03 77 1001.0
20260505090209 60 245 4.0 6.0 0.00 0.00 0.03 77 1001.0
20260505085709 60 245 5.0 5.0 0.00 0.00 0.03 77 1001.0
20260505085209 60 245 2.0 4.0 0.00 0.00 0.03 77 1001.0
20260505084709 60 245 4.0 6.0 0.00 0.00 0.03 78 1001.0
20260505084209 58 245 4.0 6.0 0.00 0.00 0.03 82 1001.0
20260505083710 57 245 4.0 7.0 0.00 0.00 0.03 89 1001.0
20260505083210 56 245 2.0 4.0 0.00 0.00 0.03 92 1001.0
20260505082709 56 245 0.0 3.0 0.00 0.00 0.03 93 1001.0
20260505082210 55 245 2.0 3.0 0.00 0.00 0.03 94 1001.0
20260505081713 55 245 1.0 2.0 0.00 0.00 0.03 94 1001.0
20260505081210 54 245 2.0 3.0 0.00 0.00 0.03 94 1001.0
20260505080710 54 245 0.0 1.0 0.00 0.00 0.03 94 1002.0
20260505080211 54 245 0.0 2.0 0.00 0.00 0.03 93 1002.0
20260505075710 54 245 0.0 0.0 0.00 0.00 0.03 93 1002.0
20260505075211 54 245 0.0 2.0 0.00 0.00 0.03 93 1002.0
20260505074711 54 245 0.0 2.0 0.00 0.00 0.03 93 1002.0
20260505074210 54 245 0.0 1.0 0.00 0.00 0.03 93 1002.0
20260505073710 54 245 0.0 1.0 0.00 0.00 0.03 93 1002.0
20260505073209 54 245 1.0 2.0 0.00 0.00 0.03 93 1002.0
20260505072710 54 245 2.0 2.0 0.00 0.00 0.03 93 1002.0
20260505072210 54 245 0.0 0.0 0.00 0.00 0.03 93 1002.0
20260505071709 54 245 1.0 2.0 0.00 0.00 0.03 93 1002.0
20260505071209 54 245 0.0 0.0 0.00 0.00 0.03 93 1002.0
20260505070709 54 245 2.0 3.0 0.00 0.00 0.03 93 1002.0
20260505070209 54 245 0.0 2.0 0.00 0.00 0.03 93 1002.0
20260505065710 54 245 2.0 2.0 0.00 0.00 0.03 93 1002.0
20260505065209 54 245 2.0 3.0 0.00 0.00 0.03 93 1002.0
20260505064709 54 245 3.0 4.0 0.00 0.00 0.03 93 1002.0
20260505064210 54 245 0.0 0.0 0.01 0.00 0.03 93 1003.0
20260505063711 54 245 0.0 2.0 0.02 0.00 0.03 93 1003.0
20260505063209 55 245 3.0 4.0 0.03 0.00 0.03 93 1003.0
20260505062709 55 245 0.0 6.0 0.03 0.00 0.03 92 1004.0
20260505062210 55 245 3.0 3.0 0.03 0.00 0.03 92 1003.0
20260505061709 55 245 1.0 4.0 0.03 0.00 0.03 92 1003.0
20260505061210 55 245 2.0 3.0 0.03 0.00 0.03 91 1003.0
20260505060710 55 245 1.0 5.0 0.03 0.00 0.03 91 1003.0
20260505060210 55 245 5.0 5.0 0.03 0.00 0.03 90 1003.0
20260505055709 56 245 3.0 3.0 0.03 0.00 0.03 90 1003.0
20260505055210 56 245 7.0 7.0 0.03 0.00 0.03 89 1003.0
20260505054709 56 245 4.0 4.0 0.03 0.00 0.03 87 1003.0
20260505054209 57 245 6.0 8.0 0.02 0.00 0.02 85 1003.0
20260505053710 59 245 8.0 9.0 0.01 0.00 0.01 81 1004.0
20260505053209 59 245 9.0 10.0 0.00 0.00 0.00 77 1004.0
20260505052711 59 245 5.0 10.0 0.00 0.00 0.00 76 1003.0
20260505052209 60 245 4.0 9.0 0.00 0.00 0.00 75 1003.0
20260505051710 60 245 4.0 6.0 0.00 0.00 0.00 74 1003.0
20260505051209 60 245 4.0 11.0 0.00 0.00 0.00 72 1003.0
20260505050710 61 245 6.0 12.0 0.00 0.00 0.00 70 1003.0
20260505050209 62 245 5.0 8.0 0.00 0.00 0.00 68 1003.0
20260505041710 63 245 4.0 10.0 0.00 0.00 0.00 68 1003.0
20260505041209 62 245 6.0 8.0 0.00 0.00 0.00 72 1003.0
20260505040710 62 245 5.0 8.0 0.00 0.00 0.00 72 1003.0
20260505040209 63 245 3.0 3.0 0.00 0.00 0.00 70 1003.0
20260505035709 64 245 9.0 9.0 0.00 0.00 0.00 66 1003.0
20260505035209 63 245 7.0 7.0 0.00 0.00 0.00 67 1003.0
20260505034709 63 245 3.0 6.0 0.00 0.00 0.00 68 1003.0
20260505034209 62 245 2.0 6.0 0.00 0.00 0.00 70 1003.0
20260505033709 61 245 2.0 2.0 0.00 0.00 0.00 71 1002.0
20260505033210 61 245 2.0 2.0 0.00 0.00 0.00 71 1003.0
20260505032709 61 245 4.0 4.0 0.00 0.00 0.00 71 1003.0
20260505032210 60 245 0.0 4.0 0.00 0.00 0.00 70 1003.0
20260505031711 60 245 3.0 4.0 0.00 0.00 0.00 70 1003.0
20260505031209 60 245 2.0 5.0 0.00 0.00 0.00 70 1003.0
20260505030709 60 245 3.0 7.0 0.00 0.00 0.00 69 1003.0
20260505030211 60 245 2.0 5.0 0.00 0.00 0.00 69 1003.0
20260505025712 59 245 4.0 8.0 0.00 0.00 0.00 69 1003.0
20260505025212 59 245 3.0 4.0 0.00 0.00 0.00 69 1003.0
20260505024709 60 245 1.0 4.0 0.00 0.00 0.00 68 1003.0
20260505024211 60 245 1.0 3.0 0.00 0.00 0.00 69 1003.0
20260505023711 60 245 3.0 6.0 0.00 0.00 0.00 68 1003.0
20260505023211 60 245 2.0 3.0 0.00 0.00 0.00 69 1003.0
20260505022711 60 245 3.0 4.0 0.00 0.00 0.00 69 1003.0
20260505022212 60 245 4.0 4.0 0.00 0.00 0.00 70 1003.0
20260505021712 60 245 4.0 4.0 0.00 0.00 0.00 71 1003.0
20260505021212 60 245 2.0 7.0 0.00 0.00 0.00 69 1003.0
20260505020711 59 245 3.0 6.0 0.00 0.00 0.00 64 1003.0
20260505020209 59 245 1.0 2.0 0.00 0.00 0.00 63 1004.0
20260505015709 59 245 0.0 2.0 0.00 0.00 0.00 57 1004.0
20260505015209 59 245 0.0 0.0 0.00 0.00 0.00 57 1003.0
20260505014709 59 245 0.0 1.0 0.00 0.00 0.00 56 1003.0
20260505014212 59 245 0.0 1.0 0.00 0.00 0.00 56 1003.0
20260505013710 59 245 0.0 0.0 0.00 0.00 0.00 56 1003.0
20260505013210 59 245 0.0 1.0 0.00 0.00 0.00 55 1003.0
20260505012709 60 245 1.0 1.0 0.00 0.00 0.00 54 1003.0
20260505012211 60 245 3.0 3.0 0.00 0.00 0.00 55 1003.0
20260505011709 60 245 3.0 3.0 0.00 0.00 0.00 54 1003.0
20260505011209 60 245 3.0 4.0 0.00 0.00 0.00 54 1003.0
20260505010709 60 245 1.0 1.0 0.00 0.00 0.00 54 1003.0
20260505010211 61 245 0.0 3.0 0.00 0.00 0.00 53 1003.0
20260505005711 61 245 0.0 2.0 0.00 0.00 0.00 53 1003.0
20260505005212 61 245 0.0 2.0 0.00 0.00 0.00 53 1003.0
20260505004710 62 245 2.0 3.0 0.00 0.00 0.00 52 1003.0
20260505004209 63 245 1.0 2.0 0.00 0.00 0.00 49 1003.0
20260505003710 64 245 0.0 2.0 0.00 0.00 0.00 48 1003.0
20260505003209 65 245 1.0 3.0 0.00 0.00 0.00 46 1003.0
20260505002709 65 245 2.0 2.0 0.00 0.00 0.00 43 1003.0
20260505002210 66 245 1.0 6.0 0.00 0.00 0.00 41 1003.0
20260505001709 67 245 1.0 1.0 0.00 0.00 0.00 40 1003.0
20260505001209 67 245 2.0 4.0 0.00 0.00 0.00 39 1003.0
20260505000709 68 245 2.0 7.0 0.00 0.00 0.00 39 1003.0
20260505000211 68 245 7.0 7.0 0.00 0.00 0.00 38 1003.0
20260504235713 68 245 5.0 6.0 0.00 0.00 0.00 37 1003.0
20260504235209 69 245 4.0 4.0 0.00 0.00 0.00 37 1003.0
20260504234710 69 245 3.0 4.0 0.00 0.00 0.00 37 1003.0
20260504234209 69 245 2.0 10.0 0.00 0.00 0.00 37 1003.0
20260504233222 70 245 6.0 7.0 0.00 0.00 0.00 36 1003.0
20260504232709 70 245 3.0 4.0 0.00 0.00 0.00 36 1003.0
20260504232210 71 245 2.0 5.0 0.00 0.00 0.00 37 1003.0
20260504231710 71 245 4.0 7.0 0.00 0.00 0.00 37 1003.0
20260504231209 71 245 2.0 7.0 0.00 0.00 0.00 36 1003.0
20260504230710 72 245 3.0 7.0 0.00 0.00 0.00 37 1003.0
20260504230209 72 245 2.0 7.0 0.00 0.00 0.00 38 1003.0
20260504225710 71 245 2.0 6.0 0.00 0.00 0.00 39 1003.0
20260504225210 71 245 2.0 8.0 0.00 0.00 0.00 40 1003.0
20260504224710 71 245 2.0 4.0 0.00 0.00 0.00 40 1003.0
20260504224210 71 245 7.0 9.0 0.00 0.00 0.00 38 1003.0
20260504223709 71 245 3.0 6.0 0.00 0.00 0.00 40 1003.0
20260504223210 71 245 3.0 6.0 0.00 0.00 0.00 39 1003.0
20260504222710 71 245 2.0 8.0 0.00 0.00 0.00 38 1003.0
20260504222209 71 245 3.0 8.0 0.00 0.00 0.00 37 1003.0
20260504221709 72 245 5.0 9.0 0.00 0.00 0.00 37 1003.0
20260504221211 72 245 2.0 8.0 0.00 0.00 0.00 36 1003.0
20260504220710 73 245 2.0 6.0 0.00 0.00 0.00 36 1003.0
20260504220210 73 245 3.0 7.0 0.00 0.00 0.00 34 1003.0
20260504215710 74 245 2.0 5.0 0.00 0.00 0.00 33 1003.0
20260504215210 74 245 4.0 8.0 0.00 0.00 0.00 32 1003.0
20260504214709 74 245 3.0 5.0 0.00 0.00 0.00 32 1003.0
20260504214210 74 245 4.0 5.0 0.00 0.00 0.00 32 1003.0